Helicity
119 128 121 109 151 112 121 164 169 112 12 79 119 134 137 176 175 163 201 193 217 210
116 94 127 158 118 109 113 89 109 172 143 127 136 124 156 171 159 183 187 190 204 236
126 89 62 88 162 153 123 147 121 109 155 151 184 188 194 177 139 163 208 228 195 196
134 132 60 9 78 134 197 164 158 158 161 141 124 133 200 227 109 178 168 184 191 177
23 83 129 88 19 71 105 144 169 166 147 147 181 121 89 157 246 206 124 142 153 161
13 18 52 116 110 57 71 118 126 142 169 157 134 119 112 130 112 198 194 71 156 183
-38 -27 -7 6 81 93 58 76 144 130 127 171 203 194 230 186 115 81 151 207 166 109
-25 -40 -42 -33 -32 21 91 56 59 131 135 138 176 113 161 218 198 174 90 96 222 211
-13 -22 -22 -38 -33 -42 -1 79 71 23 100 154 190 163 159 154 178 204 174 122 106 153
0 0 -4 -12 -28 -27 -27 -9 44 96 31 56 137 179 232 215 88 124 132 160 147 102
-8 0 6 5 4 -7 -24 -31 -10 20 53 26 14 113 208 256 151 115 148 152 200 214
-8 -1 0 4 9 2 -5 -17 -25 -15 14 37 21 40 134 165 76 134 173 135 164 189
0 -3 6 -2 -6 -4 -17 -13 -23 -16 -14 -10 25 48 92 113 83 90 69 121 146 176
-1 5 -1 4 3 -13 -18 -15 -17 -18 -10 -8 4 9 77 82 52 90 135 120 141 167
Wind_Speed
67 68 68 71 76 74 76 75 71 81 88 87 90 88 84 82 82 83 81 76 74 74
68 69 70 72 73 76 76 78 78 73 81 92 91 89 87 88 89 85 84 87 84 82
67 69 71 71 74 75 76 77 78 78 75 78 86 90 90 89 88 87 83 84 88 87
68 69 70 72 73 76 79 78 79 79 80 80 81 80 82 92 96 89 84 84 87 93
68 69 71 73 75 76 79 79 80 80 82 81 80 79 84 82 86 92 85 90 89 94
69 69 70 73 75 76 77 79 81 81 83 87 87 88 87 86 91 87 93 98 92 88
70 71 71 71 74 76 77 78 79 79 81 83 85 81 81 88 94 94 86 83 90 95
72 72 72 71 72 73 75 77 77 80 79 79 80 75 81 87 92 98 104 95 86 83
72 73 73 73 72 72 73 75 76 77 80 79 78 83 86 89 97 98 104 109 106 95
74 74 74 73 73 73 72 71 72 74 74 78 79 84 88 93 93 99 100 106 111 113
73 74 74 74 74 73 72 71 71 71 74 74 74 81 87 91 90 93 96 99 102 110
74 75 75 74 75 74 73 72 72 72 73 71 73 75 80 86 88 91 95 96 100 102
72 75 75 73 74 74 73 73 72 73 73 75 75 75 78 81 84 92 94 93 95 97
72 75 74 74 74 76 76 76 74 74 74 73 73 77 79 79 80 86 92 93 93 92
Wind_Direction
292 289 286 282 277 277 277 279 280 266 263 264 261 261 262 262 261 260 260 260 260 264
295 292 290 288 284 279 283 282 280 285 271 265 265 264 263 261 263 261 261 261 261 261
300 295 294 291 287 285 284 286 284 282 285 273 269 266 263 261 265 264 263 262 262 262
305 300 296 293 291 289 287 285 284 283 283 281 278 272 269 265 262 262 264 264 264 262
312 307 301 296 294 292 290 288 285 284 281 282 282 282 273 269 267 264 264 265 265 264
320 316 311 304 297 294 292 290 287 285 282 281 281 280 279 280 270 270 266 264 266 265
320 318 316 312 307 299 294 291 289 288 285 283 282 283 283 279 276 272 269 270 267 266
328 324 321 317 314 309 301 295 292 289 289 287 285 286 286 283 279 276 273 271 269 267
327 327 324 320 318 316 311 303 297 294 289 288 287 288 287 286 280 279 276 273 271 272
328 328 326 323 323 319 315 311 305 298 296 291 289 290 290 289 283 280 279 277 274 270
326 328 330 326 323 322 320 314 308 307 302 299 295 293 292 292 288 284 281 280 279 276
323 322 325 325 323 324 321 317 314 310 306 305 301 301 298 295 291 287 285 283 281 281
323 321 322 323 323 324 322 318 317 315 311 307 304 305 302 300 295 288 287 287 286 284
320 320 322 323 326 321 319 319 317 316 315 314 312 307 306 302 299 293 289 286 287 288